Starlink 11412

operational
NORAD ID: 63062 Int'l Des: 2025-035 Owner: SPXS Country: US Constellation: starlink
LEOCIRCULAR

Über Starlink 11412

Beschreibung wird geladen...

Live-Position

3D-Globus wird geladen...

Nächste Überflüge

Höhenverlauf

Altitude vs Time

uPlot chart will show altitude changes over time

Zweizeiliger Elementsatz

1 63062U 25035L 25257.96420402 .00332141 00000-0 24790-2 0 9998
2 63062 42.9996 354.5702 0001274 280.2580 79.8144 15.70944489 33586
Epoch: 14. Sept. 2025 • Age: 19 hours

Aktueller Status

Höhe 357.4 km
Geschwindigkeit 7.70 km/s
Subsatellitenpunkt -14.39°S, 83.84°W
Startdatum 21. Feb. 2025
Alter 0.5 years
Typ internet

Technische Details

Klassifizierung Payload
Masse 960.00 kg
Trockenmasse 910.00 kg
Gesamtmasse 960.00 kg
Länge 0.30 m
Durchmesser 4.10 m
Spannweite 29.00 m
Form Box + pan
Hersteller SPXS
Bus-Typ Starlink V2MD
Phasenstatus In Orbit
Besitzer/Staat SPXS/US

Große Konstellationen

Loading constellations...